Weather History for West Bend, WI

Change the Weather History Date:

Friday, October 26, 2012

  Actual Average Record
Temperature  
Mean Temperature 40 °F -  
Max Temperature 46 °F 55 °F 81 °F (1927)
Min Temperature 33 °F 37 °F 18 °F (1962)
Degree Days  
Heating Degree Days 26    
Moisture  
Dew Point 28 °F    
Average Humidity 67    
Maximum Humidity 81    
Minimum Humidity 46    
Precipitation  
Precipitation 0.00 in - - ()
Sea Level Pressure  
Sea Level Pressure 30.24 in    
Wind  
Wind Speed 11 mph (WNW)    
Max Wind Speed 20 mph    
Max Gust Speed 33 mph    
Visibility 10 miles    
Events      
Averages and records for this station are not official NWS values.
T = Trace of Precipitation, MM = Missing Value Source: NWS Daily Summary

Daily Weather History Graph

Daily Weather History Graph

Search for Another Location

Airport:

Trip Planner

Search our weather history database for the weather conditions in past years. The results will help you decide how hot, cold, wet, or windy it might be!

Date:

Astronomy

Oct. 26, 2012 Rise Set
Actual Time 7:20 AM CDT 5:51 PM CDT
Civil Twilight 6:51 AM CDT 6:20 PM CDT
Nautical Twilight 6:17 AM CDT 6:54 PM CDT
Astronomical Twilight 5:44 AM CDT 7:27 PM CDT
Moon 4:10 PM CDT (10/26) 4:12 AM CDT (10/26)
Length of Visible Light 11h 29m
Length of Day
10h 30m
Waxing Gibbous, 91% of the Moon is Illuminated
Oct 26
Waxing Gibbous
Oct 29
Full
Nov 6
Last Quarter
Nov 13
New
Nov 20
First Quarter

Hourly Weather History & Observations

Time (CDT) Temp. Windchill Dew Point Humidity Pressure Visibility Wind Dir Wind Speed Gust Speed Precip Events Conditions
12:15 AM 39.2 °F 29.6 °F 32.0 °F 75% 30.04 in 10.0 mi WNW 19.6 mph 26.5 mph N/A   Overcast
12:35 AM 39.2 °F 29.6 °F 30.2 °F 70% 30.05 in 10.0 mi WNW 19.6 mph 33.4 mph N/A   Overcast
12:55 AM 39.2 °F 32.0 °F 30.2 °F 70% 30.06 in 10.0 mi WNW 11.5 mph 25.3 mph N/A   Mostly Cloudy
1:15 AM 37.4 °F 27.8 °F 30.2 °F 75% 30.07 in 10.0 mi WNW 17.3 mph 24.2 mph N/A   Scattered Clouds
1:55 AM 37.4 °F 29.3 °F 30.2 °F 75% 30.09 in 10.0 mi WNW 12.7 mph 21.9 mph N/A   Clear
2:15 AM 37.4 °F 29.3 °F 30.2 °F 75% 30.10 in 10.0 mi WNW 12.7 mph 23.0 mph N/A   Clear
2:55 AM 35.6 °F 26.6 °F 30.2 °F 81% 30.12 in 10.0 mi WNW 13.8 mph 23.0 mph N/A   Clear
3:15 AM 35.6 °F 28.6 °F 30.2 °F 81% 30.12 in 10.0 mi WNW 9.2 mph - N/A   Clear
3:35 AM 35.6 °F 29.9 °F 30.2 °F 81% 30.13 in 10.0 mi WNW 6.9 mph - N/A   Clear
3:55 AM 35.6 °F 29.2 °F 30.2 °F 81% 30.14 in 10.0 mi WNW 8.1 mph - N/A   Clear
4:15 AM 35.6 °F 28.6 °F 30.2 °F 81% 30.14 in 10.0 mi West 9.2 mph - N/A   Clear
4:35 AM 35.6 °F 29.2 °F 30.2 °F 81% 30.15 in 10.0 mi WNW 8.1 mph - N/A   Clear
4:55 AM 35.6 °F 29.9 °F 28.4 °F 75% 30.17 in 10.0 mi WNW 6.9 mph - N/A   Clear
5:15 AM 35.6 °F 28.6 °F 28.4 °F 75% 30.17 in 10.0 mi WNW 9.2 mph - N/A   Clear
5:35 AM 35.6 °F 28.6 °F 28.4 °F 75% 30.18 in 10.0 mi WNW 9.2 mph - N/A   Clear
5:55 AM 33.8 °F 27.0 °F 28.4 °F 81% 30.19 in 10.0 mi WNW 8.1 mph - N/A   Clear
6:15 AM 33.8 °F 27.7 °F 28.4 °F 81% 30.19 in 10.0 mi WNW 6.9 mph - N/A   Clear
6:35 AM 33.8 °F 28.6 °F 28.4 °F 81% 30.20 in 10.0 mi WNW 5.8 mph - N/A   Clear
6:55 AM 33.8 °F 28.6 °F 28.4 °F 81% 30.21 in 10.0 mi West 5.8 mph - N/A   Clear
7:15 AM 33.8 °F 29.6 °F 28.4 °F 81% 30.22 in 10.0 mi West 4.6 mph - N/A   Clear
7:35 AM 33.8 °F 28.6 °F 28.4 °F 81% 30.23 in 10.0 mi West 5.8 mph - N/A   Clear
8:15 AM 35.6 °F 29.2 °F 28.4 °F 75% 30.25 in 10.0 mi West 8.1 mph - N/A   Clear
8:35 AM 35.6 °F 29.2 °F 28.4 °F 75% 30.26 in 10.0 mi West 8.1 mph - N/A   Clear
8:55 AM 37.4 °F 30.8 °F 28.4 °F 70% 30.28 in 10.0 mi WNW 9.2 mph - N/A   Clear
9:15 AM 37.4 °F 30.3 °F 28.4 °F 70% 30.28 in 10.0 mi WNW 10.4 mph - N/A   Clear
9:35 AM 39.2 °F 33.0 °F 28.4 °F 65% 30.30 in 10.0 mi WNW 9.2 mph - N/A   Clear
9:55 AM 41.0 °F 33.5 °F 28.4 °F 61% 30.30 in 10.0 mi WNW 13.8 mph - N/A   Clear
10:15 AM 41.0 °F 34.7 °F 28.4 °F 61% 30.30 in 10.0 mi NW 10.4 mph - N/A   Clear
10:35 AM 42.8 °F 37.0 °F 28.4 °F 57% 30.30 in 10.0 mi NW 10.4 mph - N/A   Clear
11:15 AM 42.8 °F 35.8 °F 28.4 °F 57% 30.30 in 10.0 mi West 13.8 mph - N/A   Clear
11:35 AM 42.8 °F 35.4 °F 28.4 °F 57% 30.30 in 10.0 mi NW 15.0 mph 18.4 mph N/A   Clear
11:55 AM 44.6 °F 38.8 °F 26.6 °F 49% 30.30 in 10.0 mi NW 11.5 mph 18.4 mph N/A   Clear
12:15 PM 44.6 °F 38.1 °F 26.6 °F 49% 30.29 in 10.0 mi NW 13.8 mph 18.4 mph N/A   Clear
12:35 PM 44.6 °F 38.8 °F 26.6 °F 49% 30.29 in 10.0 mi WNW 11.5 mph - N/A   Clear
12:55 PM 44.6 °F 38.1 °F 26.6 °F 49% 30.28 in 10.0 mi WNW 13.8 mph 20.7 mph N/A   Clear
1:15 PM 44.6 °F 37.8 °F 26.6 °F 49% 30.27 in 10.0 mi WNW 15.0 mph 18.4 mph N/A   Clear
1:35 PM 44.6 °F 38.1 °F 26.6 °F 49% 30.27 in 10.0 mi WNW 13.8 mph 19.6 mph N/A   Clear
1:55 PM 46.4 °F 41.1 °F 26.6 °F 46% 30.27 in 10.0 mi NW 11.5 mph 20.7 mph N/A   Clear
2:35 PM 46.4 °F 41.1 °F 26.6 °F 46% 30.27 in 10.0 mi West 11.5 mph 16.1 mph N/A   Clear
3:15 PM 46.4 °F 41.9 °F 26.6 °F 46% 30.26 in 10.0 mi NW 9.2 mph - N/A   Clear
3:35 PM 46.4 °F 43.5 °F 26.6 °F 46% 30.27 in 10.0 mi WNW 5.8 mph - N/A   Clear
3:55 PM 46.4 °F 41.9 °F 26.6 °F 46% 30.27 in 10.0 mi West 9.2 mph - N/A   Clear
4:15 PM 44.6 °F 40.2 °F 26.6 °F 49% 30.28 in 10.0 mi WNW 8.1 mph - N/A   Clear
4:35 PM 44.6 °F 40.7 °F 26.6 °F 49% 30.28 in 10.0 mi WNW 6.9 mph - N/A   Clear
4:55 PM 44.6 °F 40.2 °F 26.6 °F 49% 30.28 in 10.0 mi WNW 8.1 mph - N/A   Clear
5:15 PM 42.8 °F 38.0 °F 26.6 °F 53% 30.28 in 10.0 mi WNW 8.1 mph - N/A   Clear
5:35 PM 42.8 °F 39.3 °F 28.4 °F 57% 30.28 in 10.0 mi NW 5.8 mph - N/A   Clear
5:55 PM 42.8 °F 40.1 °F 26.6 °F 53% 30.29 in 10.0 mi WNW 4.6 mph - N/A   Clear
6:15 PM 41.0 °F 37.1 °F 28.4 °F 61% 30.29 in 10.0 mi NW 5.8 mph - N/A   Clear
6:35 PM 41.0 °F 37.1 °F 28.4 °F 61% 30.29 in 10.0 mi NW 5.8 mph - N/A   Clear
6:55 PM 39.2 °F 37.0 °F 28.4 °F 65% 30.30 in 10.0 mi NW 3.5 mph - N/A   Clear
7:15 PM 39.2 °F 37.0 °F 28.4 °F 65% 30.30 in 10.0 mi NW 3.5 mph - N/A   Clear
7:35 PM 39.2 °F 35.9 °F 28.4 °F 65% 30.30 in 10.0 mi NW 4.6 mph - N/A   Clear
7:55 PM 37.4 °F 33.8 °F 28.4 °F 70% 30.30 in 10.0 mi WNW 4.6 mph - N/A   Clear
8:15 PM 37.4 °F 32.8 °F 28.4 °F 70% 30.29 in 10.0 mi NW 5.8 mph - N/A   Clear
8:55 PM 37.4 °F 32.8 °F 28.4 °F 70% 30.30 in 10.0 mi NNW 5.8 mph - N/A   Clear
9:15 PM 35.6 °F 31.7 °F 28.4 °F 75% 30.30 in 10.0 mi NW 4.6 mph - N/A   Clear
9:35 PM 35.6 °F 32.8 °F 28.4 °F 75% 30.31 in 10.0 mi NNW 3.5 mph - N/A   Clear
9:55 PM 35.6 °F 31.7 °F 28.4 °F 75% 30.32 in 10.0 mi NW 4.6 mph - N/A   Clear
10:15 PM 35.6 °F 32.8 °F 28.4 °F 75% 30.32 in 10.0 mi NW 3.5 mph - N/A   Clear
10:35 PM 33.8 °F 27.7 °F 28.4 °F 81% 30.31 in 10.0 mi NW 6.9 mph - N/A   Clear
10:55 PM 33.8 °F 29.6 °F 28.4 °F 81% 30.31 in 10.0 mi NW 4.6 mph - N/A   Clear
11:15 PM 33.8 °F 30.8 °F 26.6 °F 75% 30.31 in 10.0 mi NNW 3.5 mph - N/A   Clear
11:55 PM 33.8 °F 30.8 °F 26.6 °F 75% 30.31 in 10.0 mi WNW 3.5 mph - N/A   Clear